[ ตารางข้อมูล ] [ Min-Max ] [ วันนี้2 ] [ วันนี้4 ] [ เทียบ-A 3วัน ] [ เทียบ-B 4วัน ]   

วันนี้2   [ ◀ ช่วงเก่ากว่า ] [ ช่วงที่ 51 ] [ ช่วงใหม่กว่า ▶ ] [ ล่าสุด ]    [ 3 ชั่วโมง ] [ 6 ชั่วโมง ] [ 12 ชั่วโมง ] [ 24 ชั่วโมง ]   วันนี้2

อุณภูมิในตู้ Knockdown4529  ราย 6 ชั่วโมง  ที่วัดได้ ในช่วงวันเวลา 20/08/2026 (13:09) ถึง 20/08/2026 (19:09) 
ความชื้นในตู้ Knockdown4529  ราย 6 ชั่วโมง  ที่วัดได้ ในช่วงวันเวลา 20/08/2026 (13:09) ถึง 20/08/2026 (19:09) 
การใช้ไฟฟ้าในตู้ Knockdown4529  ราย 6 ชั่วโมง  ที่วัดได้ ในช่วงวันเวลา 20/08/2026 (13:09) ถึง 20/08/2026 (19:09) 

  DS18B20SHTC3PZEM-004TWiFi 
IDDate d/m/Y & Timedata1
สูง
data2
ต่ำ
data3
นอก
temp
pcb
hum
pcb
VoltAmpWattrssiTime
 14432  20/08/2026 19:07:47  32.0  32.1  30.9  33.1  66.4  228.4  0.05  4.6  -77  19:07 
 14431  20/08/2026 19:03:03  32.0  32.1  30.9  33.1  66.2  232.6  0.04  4.6  -79  19:03 
 14430  20/08/2026 18:58:21  32.1  32.1  30.9  33.1  66.0  232.2  0.04  4.6  -82  18:58 
 14429  20/08/2026 18:53:37  32.1  32.2  30.9  33.2  66.0  231.4  0.04  4.6  -82  18:53 
 14428  20/08/2026 18:48:54  32.1  32.2  31.0  33.2  65.8  229.4  0.04  4.6  -79  18:48 
 14427  20/08/2026 18:44:10  32.2  32.2  30.9  33.3  65.8  232.5  0.04  4.6  -82  18:44 
 14426  20/08/2026 18:39:27  32.2  32.2  31.0  33.3  65.8  232.6  0.04  4.6  -80  18:39 
 14425  20/08/2026 18:34:43  32.2  32.2  31.1  33.6  65.8  234.4  0.04  4.6  -81  18:34 
 14424  20/08/2026 18:30:00  32.3  32.3  31.1  33.5  65.7  233.0  0.04  4.5  -80  18:30 
 14423  20/08/2026 18:25:16  32.4  32.3  31.3  33.6  65.5  232.9  0.04  4.6  -79  18:25 
 14422  20/08/2026 18:20:33  32.6  32.3  31.4  33.4  65.4  233.1  0.04  4.6  -80  18:20 
 14421  20/08/2026 18:15:50  32.6  32.3  31.5  33.7  65.3  234.1  0.04  4.5  -82  18:15 
 14420  20/08/2026 18:11:07  32.7  32.4  31.7  33.6  65.2  234.4  0.04  4.5  -79  18:11 
 14419  20/08/2026 18:06:23  32.8  32.4  31.7  33.6  65.1  234.0  0.04  4.5  -80  18:06 
 14418  20/08/2026 18:01:39  32.8  32.4  31.9  33.8  65.1  234.2  0.04  4.5  -83  18:01 
 14417  20/08/2026 17:56:56  32.8  32.4  31.9  33.6  65.0  234.1  0.04  4.5  -79  17:56 
 14416  20/08/2026 17:52:13  32.8  32.4  32.0  33.7  65.0  234.6  0.04  4.5  -79  17:52 
 14415  20/08/2026 17:47:29  32.8  32.4  32.1  33.7  65.0  233.8  0.04  4.6  -77  17:47 
 14414  20/08/2026 17:42:46  32.8  32.4  32.4  34.0  64.9  234.3  0.04  4.5  -79  17:42 
 14413  20/08/2026 17:38:02  32.9  32.4  32.4  33.9  64.9  234.5  0.04  4.5  -80  17:38 
 14412  20/08/2026 17:33:19  32.9  32.4  32.5  33.6  65.1  233.9  0.04  4.5  -81  17:33 
 14411  20/08/2026 17:28:35  32.9  32.4  32.7  33.8  65.0  234.1  0.04  4.5  -80  17:28 
 14410  20/08/2026 17:23:51  32.9  32.4  32.9  33.6  65.0  234.8  0.04  4.6  -80  17:23 
 14409  20/08/2026 17:19:08  32.9  32.4  33.0  33.7  64.9  234.6  0.04  4.6  -80  17:19 

Data every 5 minute.


ใช้เวลาประมวลผล 0.04320 วินาที